Location: Moscow
(55.7500°N, 37.5830°E)
Time: 14:07:19
(UTC+03:00)

S-56A Canister/Altair - Pass Details

Date: 01 December 2021
Orbit: 633 x 2499 km, 38.9° (Epoch: 17 January)

Event Time Altitude Azimuth Distance (km) Brightness Sun altitude
Rises 03:56:12 0° 241° (WSW) 3,872 - -37.7°
Reaches altitude 10° 04:00:41 10° 217° (SW) 2,555 - -37.1°
Maximum altitude 04:03:21 13° 190° (S) 2,145 - -36.7°
Drops below altitude 10° 04:05:43 10° 161° (SSE) 2,227 - -36.4°
Exits shadow 04:07:48 - 142° (SE) 2,631 10.5 -36.1°
Sets 04:09:06 0° 133° (SE) 2,992 10.9 -35.9°
